Flag for Brazil Weather past 2 weeks in Porto Acre, Acre, Brazil

Now
86 °F

Passing clouds.


Feels Like: 93 °F
Forecast: 74 / 87 °F
Wind: 10 mph from North

Location: Rio Branco Airport

Current Time: Mar 31, 2015 at 1:18:20 PM

Latest Report: Mar 31, 2015 at 1:00 PM


Visibility: N/A

Pressure: 29.89 "Hg

Humidity: 66%

Dew point: 73 °F

Location of Porto AcreLocation

Historic Weather in Porto Acre — Graph

°F

Porto Acre temperature yesterday

Maximum temperature yesterday: 86 °F (at 11:00 AM)
Minimum temperature yesterday: 70 °F (at 6:00 AM)
Average temperature yesterday: 76 °F

Past Weeks' High & Low Weather Summary

 TemperatureHumidityPressure
High91 °F (Mar 27, 3:00 PM)100% (Mar 17, 2:00 AM)30.07 "Hg (Mar 17, 2:00 AM)
Low39 °F (Mar 18, 5:00 PM)59% (Mar 26, 3:00 PM)29.74 "Hg (Mar 18, 3:00 PM)
Average76 °F89%29.89 "Hg
* Reported Mar 16 12:00 Noon — Mar 31 12:00 Noon, Porto Acre, Weather by CustomWeather, © 2015

Note: Actual official high and low records may vary slightly from our data, if they occured in-between our weather recording intervals... More about our weather records

Advertising

Porto Acre weather history for previous 24 hours

 ConditionsComfort  
Time TempWeatherWind HumidityBarometerVisibility
12:00 PM
Tue, Mar 31
86 °FBroken clouds.8 mph70%29.92 "HgN/A
11:00 AM82 °FBroken clouds.3 mph74%29.95 "HgN/A
10:00 AM79 °FBroken clouds.5 mph84%29.98 "HgN/A
9:00 AM77 °FBroken clouds.5 mph89%29.98 "HgN/A
8:00 AM73 °FBroken clouds.3 mph94%29.98 "HgN/A
7:00 AM72 °FPartly sunny.2 mph100%29.95 "HgN/A
6:00 AM72 °FFog.No wind94%29.92 "Hg1 mi
5:00 AM72 °FPassing clouds.No wind94%29.89 "HgN/A
4:00 AM72 °FFog.3 mph94%29.86 "Hg3 mi
3:00 AM72 °FPassing clouds.6 mph94%29.86 "HgN/A
2:00 AM73 °FPassing clouds.6 mph94%29.89 "HgN/A
1:00 AM73 °FPassing clouds.7 mph94%29.89 "HgN/A
12:00 AM73 °FPassing clouds.7 mph94%29.92 "HgN/A
11:00 PM
Mon, Mar 30
73 °FClear.3 mph94%29.92 "Hg10 mi
10:00 PM73 °FPassing clouds.6 mph94%29.92 "HgN/A
9:00 PM73 °FClear.2 mph94%29.89 "Hg10 mi
8:00 PM75 °FClear.2 mph94%29.89 "Hg10 mi
7:00 PM75 °FLight rain. Mostly cloudy.7 mph94%29.86 "Hg5 mi
6:00 PM73 °FLight rain. Broken clouds.8 mph94%29.86 "Hg5 mi
5:00 PM75 °FBroken clouds.5 mph94%29.86 "HgN/A
4:00 PM77 °FBroken clouds.6 mph89%29.83 "HgN/A
3:00 PM77 °FBroken clouds.7 mph89%29.83 "HgN/A
2:00 PM77 °FPartly sunny.7 mph94%29.83 "HgN/A
1:00 PM79 °FRain. Partly sunny.3 mphN/AN/AN/A
Weather by CustomWeather, © 2015

See weather overviewHow to use our weather pages